[[{"header":{"parameterUnit":"m.s-1","parameterCategory":1,"la1":30.2991,"la2":30.254,"lo1":-89.0895,"lo2":-89.0444,"dy":0.0017,"dx":0.0017,"nx":28,"ny":28,"refTime":"2025-01-19T03:00:00:Z","depth":0,"parameterNumber":2,"parameterNumberName":"U-component_of_WINDS"},"data":[0,0,0,0,0,0,0,0,0,0,0,0,0,0,0,0,0,0,0,0,0,0,0,0,0,0,0,0,0,0,0,0,0,0,0,0,0,0,0,0,0,0,0,0,0,0,0,0,0,0,0,0,0,0,0,0,0,0,3.1079,3.1079,0,3.1112,3.1112,3.1113,3.109,3.1089,3.1088,3.1087,3.1121,3.1122,3.1124,0,0,0,0,0,0,0,0,0,0,0,0,0,3.0996,3.0998,3.1078,3.1079,3.1079,3.1112,3.1112,3.1113,3.109,3.1089,3.1088,3.1086,3.112,3.1122,3.1124,0,0,0,0,0,0,0,0,0,0,0,0,0,3.1031,3.0998,3.1078,3.1072,3.1072,3.1112,3.1112,3.1113,3.109,3.1089,3.1087,3.1086,3.1119,3.1122,3.1125,3.1173,0,0,3.1133,3.1134,0,0,0,0,0,0,0,0,3.1029,3.1034,3.1073,3.1072,3.1072,3.1095,3.1096,3.1133,3.1091,3.1083,3.1087,3.1085,3.1113,3.1116,3.1126,3.1174,3.1176,3.1133,3.1135,3.1136,3.1137,0,0,0,0,0,0,0,3.1027,3.1032,3.1092,3.1073,3.1073,3.1068,3.1071,3.1103,3.1107,3.1084,3.1082,3.1087,3.1113,3.1124,3.1127,3.1176,3.1133,3.1136,3.1137,3.1139,3.1268,3.127,0,0,0,0,0,0,3.1025,3.103,3.1091,3.1093,3.1046,3.1071,3.1074,3.1089,3.1106,3.1107,3.1088,3.1085,3.112,3.1124,3.1128,3.1187,3.1136,3.1139,3.114,3.1266,3.1268,3.127,0,0,0,0,0,0,3.1023,3.103,3.1089,3.1061,3.1068,3.1074,3.1091,3.1091,3.1101,3.1109,3.111,3.1098,3.1118,3.1124,3.1162,3.1187,3.114,3.1143,3.1264,3.1267,3.1269,3.1303,0,0,0,0,0,0,3.1021,3.103,3.1048,3.1062,3.107,3.1123,3.1092,3.1093,3.1106,3.1103,3.1119,3.112,3.1118,3.1158,3.1165,3.119,3.1145,3.1262,3.1265,3.1269,3.13,3.1307,3.1313,0,0,0,0,0,3.1018,3.1055,3.1049,3.1056,3.1092,3.1124,3.1129,3.1126,3.1108,3.1127,3.1132,3.1119,3.1184,3.1162,3.117,3.1196,3.126,3.1264,3.1268,3.1297,3.1306,3.1313,0,0,0,0,0,0,3.1043,3.1057,3.105,3.1093,3.1108,3.112,3.1143,3.1135,3.1154,3.1151,3.1146,3.115,3.1191,3.1197,3.1173,3.1245,3.1219,3.1225,3.1239,3.1247,3.1253,3.125,3.1147,0,0,0,0,0,3.1054,3.1078,3.1089,3.1126,3.1134,3.1138,3.1151,3.1148,3.1163,3.1169,3.1177,3.1193,3.1216,3.1232,3.1254,3.1301,3.1305,3.1324,3.133,3.1335,3.134,3.1367,3.1376,3.1283,3.1283,3.1283,0,0,3.1075,3.1086,3.1102,3.1132,3.1143,3.1169,3.1143,3.1171,3.1191,3.1173,3.121,3.1217,3.1234,3.1278,3.1297,3.1284,3.1366,3.134,3.1344,3.1346,3.1372,3.1381,3.1389,3.1286,3.1286,3.1285,0,0,3.1129,3.1139,3.1172,3.1184,3.1202,3.1205,3.1213,3.1227,3.1232,3.1269,3.1257,3.1281,3.1321,3.1334,3.1346,3.1408,3.1397,3.1415,3.1448,3.1475,3.1482,3.1489,3.1511,3.152,3.142,3.142,3.142,0,3.1154,3.1193,3.119,3.122,3.1234,3.1221,3.1254,3.1266,3.129,3.1301,3.1286,3.1339,3.1349,3.1396,3.1412,3.1421,3.1431,3.1413,3.1481,3.1488,3.1494,3.1515,3.1524,3.1422,3.1422,3.1422,3.1422,0,3.1223,3.125,3.1275,3.1299,3.1316,3.1348,3.1351,3.1368,3.1364,3.1369,3.1408,3.142,3.1446,3.1457,3.1453,3.1504,3.1496,3.1482,3.1456,3.1505,3.1525,3.1533,3.1426,3.1425,3.1424,3.1424,0,0,3.1291,3.1316,3.1325,3.1337,3.1357,3.1378,3.141,3.1435,3.1451,3.1469,3.1496,3.1532,3.152,3.1534,3.1531,3.1554,3.1604,3.1538,3.1538,3.155,3.1663,3.1674,3.1683,3.1598,3.1599,3.16,3.1662,0,3.1346,3.1402,3.1402,3.1453,3.1479,3.1469,3.1497,3.1512,3.1518,3.1541,3.1547,3.1574,3.1555,3.1563,3.1586,3.1593,3.1627,3.1589,3.1623,3.1625,3.1619,3.1694,3.1705,3.1762,3.167,3.1671,3.1672,0,3.1417,3.1439,3.1493,3.1511,3.1522,3.1547,3.1572,3.1594,3.1612,3.1615,3.1632,3.1627,3.166,3.1634,3.1681,3.1655,3.167,3.1676,3.1678,3.1681,3.1651,3.1699,3.178,3.1789,3.1685,3.1684,3.1683,0,3.1462,3.1505,3.1543,3.1554,3.1576,3.1594,3.1604,3.1621,3.1637,3.1659,3.1669,3.1694,3.1708,3.1728,3.173,3.1711,3.1778,3.1752,3.1782,3.1782,3.1795,3.1794,3.188,3.1805,3.1805,3.1805,3.1805,0,3.1524,3.1558,3.1564,3.1588,3.1626,3.1626,3.1664,3.1673,3.1689,3.1714,3.1707,3.1731,3.1732,3.1758,3.176,3.1799,3.1805,3.1809,3.1809,3.1809,3.1809,3.1818,3.1814,3.1807,3.1806,3.1806,3.1806,0,3.158,3.1586,3.1627,3.1645,3.1651,3.1678,3.1694,3.1717,3.1723,3.1756,3.1764,3.1773,3.1803,3.1807,3.1842,3.1843,3.1891,3.1886,3.1884,3.1884,3.1914,3.1911,3.2008,3.2021,3.1938,3.1938,3.1939,0,3.1619,3.1645,3.1666,3.1683,3.1695,3.1722,3.1739,3.1741,3.1759,3.1783,3.1804,3.1833,3.1856,3.1905,3.1915,3.1942,3.1938,3.1971,3.1942,3.1943,3.1939,3.1938,3.1941,3.1976,3.1977,3.1978,3.1978,0,3.1687,3.1689,3.1714,3.1741,3.1761,3.1782,3.1802,3.1816,3.1821,3.1842,3.1873,3.1891,3.1928,3.1957,3.1984,3.1995,3.1988,3.1987,3.1996,3.1996,3.1994,3.1997,3.19,3.1985,3.1984,3.1984,3.1983,3.1983,3.1736,3.1759,3.1779,3.1807,3.1823,3.1842,3.1865,3.1875,3.1901,3.1931,3.193,3.1965,3.1984,3.2021,3.2034,3.2061,3.205,3.2062,3.2065,3.2068,3.2071,3.1991,3.2066,3.2065,3.2065,3.2065,3.2065,0,3.1804,3.1817,3.1843,3.1872,3.1895,3.1887,3.1909,3.1929,3.1959,3.1978,3.2002,3.2039,3.2068,3.2081,3.211,3.213,3.2127,3.2137,3.2136,3.2138,3.2079,3.2069,3.2139,3.2139,3.2139,3.2139,3.2139,3.2139,3.1843,3.1882,3.1887,3.1935,3.1948,3.1981,3.1995,3.2013,3.2029,3.207,3.2094,3.2103,3.2121,3.2151,3.2178,3.2181,3.2193,3.2204,3.2206,3.215,3.2142,3.2135,3.2126,3.2207,3.2207,3.2263,3.2264,3.2264]},{"header":{"parameterUnit":"m.s-1","parameterCategory":1,"la1":30.2991,"la2":30.254,"lo1":-89.0895,"lo2":-89.0444,"dy":0.0017,"dx":0.0017,"nx":28,"ny":28,"refTime":"2025-01-19T03:00:00:Z","depth":0,"parameterNumber":3,"parameterNumberName":"V-component_of_WINDS"},"data":[0,0,0,0,0,0,0,0,0,0,0,0,0,0,0,0,0,0,0,0,0,0,0,0,0,0,0,0,0,0,0,0,0,0,0,0,0,0,0,0,0,0,0,0,0,0,0,0,0,0,0,0,0,0,0,0,0,0,-7.656,-7.6561,0,-7.6689,-7.6691,-7.6692,-7.666,-7.6658,-7.6655,-7.6653,-7.678,-7.6786,-7.6791,0,0,0,0,0,0,0,0,0,0,0,0,0,-7.6281,-7.6286,-7.656,-7.6561,-7.6563,-7.6689,-7.6691,-7.6693,-7.666,-7.6657,-7.6654,-7.6651,-7.6778,-7.6785,-7.6792,0,0,0,0,0,0,0,0,0,0,0,0,0,-7.6405,-7.6288,-7.6559,-7.6562,-7.6564,-7.6689,-7.6691,-7.6693,-7.6661,-7.6657,-7.6654,-7.665,-7.6776,-7.6784,-7.6793,-7.6921,0,0,-7.6819,-7.6823,0,0,0,0,0,0,0,0,-7.6398,-7.6416,-7.656,-7.6562,-7.6564,-7.6655,-7.6639,-7.6769,-7.6662,-7.6624,-7.6653,-7.6648,-7.6741,-7.6752,-7.6785,-7.6927,-7.6933,-7.682,-7.6825,-7.6829,-7.6831,0,0,0,0,0,0,0,-7.639,-7.641,-7.6611,-7.6562,-7.6565,-7.6556,-7.6569,-7.6664,-7.6702,-7.6627,-7.6625,-7.6641,-7.6741,-7.6776,-7.6787,-7.6935,-7.682,-7.6827,-7.6832,-7.6836,-7.7192,-7.7196,0,0,0,0,0,0,-7.638,-7.6403,-7.6607,-7.6615,-7.6471,-7.6564,-7.6579,-7.6629,-7.6701,-7.6708,-7.6644,-7.6639,-7.6764,-7.6777,-7.6792,-7.6949,-7.6829,-7.6837,-7.6842,-7.7187,-7.7192,-7.7197,0,0,0,0,0,0,-7.6374,-7.6399,-7.6601,-7.6508,-7.6534,-7.6573,-7.663,-7.6634,-7.6669,-7.6714,-7.672,-7.6673,-7.6761,-7.678,-7.689,-7.6953,-7.6841,-7.6848,-7.7182,-7.7189,-7.7195,-7.7263,0,0,0,0,0,0,-7.6366,-7.6397,-7.6447,-7.651,-7.6539,-7.6699,-7.6633,-7.6639,-7.6685,-7.6679,-7.6743,-7.675,-7.676,-7.6878,-7.6899,-7.6962,-7.6855,-7.7177,-7.7185,-7.7193,-7.7255,-7.7271,-7.7284,0,0,0,0,0,-7.6357,-7.6459,-7.6449,-7.6474,-7.6602,-7.6703,-7.6719,-7.673,-7.669,-7.674,-7.6769,-7.6748,-7.6943,-7.6889,-7.6913,-7.698,-7.7173,-7.7183,-7.7192,-7.7249,-7.7268,-7.7284,0,0,0,0,0,0,-7.6399,-7.6467,-7.6457,-7.6583,-7.6638,-7.6697,-7.676,-7.6749,-7.6815,-7.6807,-7.6816,-7.6831,-7.6944,-7.6973,-7.6912,-7.7109,-7.7052,-7.7067,-7.7087,-7.7105,-7.7119,-7.711,-7.6862,0,0,0,0,0,-7.6424,-7.6501,-7.6555,-7.6661,-7.669,-7.6721,-7.6765,-7.6769,-7.6825,-7.6847,-7.6884,-7.6938,-7.7012,-7.706,-7.713,-7.7259,-7.7273,-7.7317,-7.7332,-7.7343,-7.7356,-7.7428,-7.7449,-7.7229,-7.7229,-7.7229,0,0,-7.6474,-7.6521,-7.6568,-7.6671,-7.6714,-7.6793,-7.674,-7.6825,-7.6884,-7.6859,-7.6967,-7.6997,-7.7057,-7.7179,-7.7234,-7.7206,-7.742,-7.7356,-7.7365,-7.7371,-7.744,-7.7461,-7.748,-7.7235,-7.7234,-7.7233,0,0,-7.6607,-7.665,-7.6744,-7.6789,-7.6855,-7.6876,-7.6898,-7.6961,-7.698,-7.7089,-7.7073,-7.7142,-7.7268,-7.7313,-7.7352,-7.7506,-7.7489,-7.7528,-7.7603,-7.7674,-7.7691,-7.7707,-7.7763,-7.7782,-7.754,-7.754,-7.7541,0,-7.666,-7.6781,-7.6793,-7.6882,-7.6927,-7.6912,-7.7007,-7.7049,-7.7134,-7.7166,-7.7134,-7.7295,-7.7334,-7.7467,-7.7505,-7.7536,-7.7563,-7.752,-7.7688,-7.7704,-7.7718,-7.7772,-7.7793,-7.7545,-7.7544,-7.7544,-7.7543,0,-7.6845,-7.6928,-7.6996,-7.7082,-7.7136,-7.7227,-7.7252,-7.7305,-7.7305,-7.7329,-7.7441,-7.7488,-7.7569,-7.76,-7.76,-7.7734,-7.7715,-7.7686,-7.7628,-7.7744,-7.7794,-7.7814,-7.7551,-7.755,-7.7548,-7.7547,0,0,-7.7006,-7.71,-7.7125,-7.7165,-7.7238,-7.7303,-7.7394,-7.7475,-7.752,-7.758,-7.7657,-7.7765,-7.774,-7.7785,-7.7789,-7.7851,-7.7972,-7.7815,-7.7816,-7.7843,-7.8124,-7.8146,-7.8169,-7.7961,-7.7965,-7.7968,-7.8119,0,-7.7146,-7.7309,-7.7324,-7.7469,-7.7547,-7.7534,-7.7614,-7.7667,-7.7692,-7.7762,-7.7788,-7.7866,-7.7826,-7.7853,-7.7914,-7.7944,-7.8028,-7.7933,-7.8032,-7.8036,-7.8018,-7.8195,-7.8218,-7.8358,-7.8139,-7.8142,-7.8144,0,-7.7331,-7.74,-7.7554,-7.7619,-7.7653,-7.7724,-7.7801,-7.7867,-7.7928,-7.7942,-7.7994,-7.7991,-7.8084,-7.8024,-7.8152,-7.8088,-7.8129,-7.815,-7.8156,-7.8166,-7.8097,-7.8211,-7.8403,-7.8425,-7.8175,-7.8173,-7.8171,0,-7.7435,-7.7566,-7.7676,-7.771,-7.7788,-7.7839,-7.7874,-7.7931,-7.798,-7.8046,-7.8078,-7.8154,-7.8196,-7.8254,-7.8272,-7.8226,-7.8401,-7.8341,-7.8415,-7.8415,-7.8452,-7.8449,-7.8655,-7.8478,-7.8477,-7.8477,-7.8477,0,-7.7591,-7.7686,-7.7724,-7.7791,-7.7898,-7.7914,-7.8018,-7.805,-7.8102,-7.8175,-7.8167,-7.8236,-7.8255,-7.8327,-7.8341,-7.8446,-7.8465,-7.8478,-7.8481,-7.848,-7.8478,-7.8507,-7.8498,-7.8483,-7.8481,-7.848,-7.8479,0,-7.7725,-7.7754,-7.7873,-7.7939,-7.7958,-7.8034,-7.8089,-7.8154,-7.8179,-7.8272,-7.8295,-7.8333,-7.8418,-7.8442,-7.8542,-7.8552,-7.8676,-7.8669,-7.8656,-7.8657,-7.873,-7.8723,-7.8961,-7.8993,-7.8795,-7.8796,-7.8798,0,-7.7822,-7.7895,-7.797,-7.802,-7.8058,-7.8137,-7.8188,-7.8207,-7.826,-7.8337,-7.8393,-7.8477,-7.8545,-7.868,-7.8716,-7.8794,-7.8789,-7.8868,-7.8801,-7.8798,-7.8792,-7.8788,-7.8796,-7.888,-7.8882,-7.8884,-7.8885,0,-7.7993,-7.8004,-7.8079,-7.816,-7.8221,-7.8285,-7.8346,-7.8386,-7.8414,-7.8474,-7.8562,-7.8615,-7.872,-7.8803,-7.8882,-7.8916,-7.8906,-7.8906,-7.8928,-7.8927,-7.8917,-7.8925,-7.8692,-7.89,-7.8899,-7.8898,-7.8897,-7.8896,-7.8112,-7.8178,-7.8242,-7.8325,-7.8374,-7.8432,-7.8498,-7.8532,-7.8606,-7.8695,-7.8701,-7.8796,-7.8857,-7.8962,-7.9001,-7.9076,-7.9052,-7.9083,-7.9091,-7.9098,-7.9105,-7.8905,-7.909,-7.9089,-7.9089,-7.9088,-7.9088,0,-7.8283,-7.8325,-7.8402,-7.8489,-7.8555,-7.8542,-7.861,-7.8666,-7.8751,-7.8809,-7.8877,-7.8979,-7.9061,-7.9105,-7.9187,-7.9238,-7.9235,-7.9258,-7.9255,-7.9264,-7.9121,-7.9095,-7.926,-7.926,-7.9259,-7.9259,-7.9259,-7.9259,-7.838,-7.8491,-7.8511,-7.8647,-7.8687,-7.8782,-7.8822,-7.8876,-7.8923,-7.9038,-7.9107,-7.9136,-7.9189,-7.9275,-7.9349,-7.936,-7.939,-7.9417,-7.9425,-7.9291,-7.9273,-7.9257,-7.9232,-7.9423,-7.9424,-7.9562,-7.9563,-7.9564]}]]